CAPE
1455 1489 1492 1499 1483 1481 1480 1464 1446 1378 1325 1238 1149 1136 1316 1376 1235 1127 1169 1427 1620 1715 1773 1787 1805 1849 1960 2085 2174 2243 2341 2480 2568 2647 2688 2708 2747 2786 2824 2866 2853 2748 2588 2475 2374 2302 2212 2065 1755 1220 503 15 123 620 706 696 705 746 782 831 868 800 460 0 0 0 0 0 0 2 12 0 0 0 0 0 0 44 269 144 62 44 58 18 0
1382 1454 1462 1471 1482 1466 1458 1448 1426 1404 1320 1214 1166 1136 1150 1366 1468 1347 1178 1302 1614 1794 1828 1842 1813 1833 1898 2017 2124 2186 2258 2378 2516 2615 2667 2690 2731 2762 2835 2898 2852 2759 2649 2578 2520 2453 2361 2253 2086 1843 1496 1114 533 32 474 697 670 698 762 814 880 898 810 663 57 0 2 0 0 0 138 462 617 516 434 399 0 36 73 196 212 128 101 54 5
1252 1375 1410 1418 1433 1437 1418 1397 1366 1321 1241 1174 1181 1198 1193 1268 1431 1521 1470 1376 1432 1735 1886 1913 1914 1875 1860 1950 2081 2172 2229 2291 2420 2544 2612 2650 2679 2722 2764 2828 2799 2740 2684 2647 2624 2548 2471 2350 2204 2065 1854 1574 1328 1016 384 192 370 616 704 776 842 899 924 863 735 548 224 8 0 0 23 45 285 568 547 558 537 352 53 136 268 250 184 90 37
1166 1280 1361 1352 1346 1347 1331 1293 1260 1238 1228 1202 1211 1257 1280 1311 1468 1584 1581 1480 1430 1562 1802 1954 1994 1966 1903 1891 1993 2151 2234 2282 2354 2470 2556 2602 2638 2669 2710 2738 2770 2760 2696 2664 2641 2563 2502 2396 2279 2144 2015 1784 1584 1458 1304 879 640 339 426 602 812 875 926 936 904 817 736 630 483 27 25 9 20 27 14 454 508 539 530 221 215 296 244 185 86
1141 1171 1296 1364 1357 1332 1304 1265 1252 1242 1249 1254 1258 1306 1356 1395 1498 1681 1731 1696 1583 1525 1678 1912 2043 2056 2002 1932 1938 2046 2182 2272 2331 2414 2500 2558 2602 2628 2653 2680 2698 2692 2689 2638 2583 2524 2463 2384 2222 2154 2042 1886 1714 1562 1491 1427 1283 1141 782 420 444 662 898 966 969 944 893 837 755 657 598 553 542 511 458 143 294 482 499 495 322 212 225 190 195
1206 1184 1201 1302 1368 1364 1342 1303 1276 1261 1265 1295 1308 1321 1394 1482 1576 1738 1845 1880 1828 1715 1655 1792 2008 2112 2105 2048 1987 2000 2107 2220 2312 2374 2456 2538 2596 2633 2659 2658 2647 2648 2626 2592 2521 2455 2415 2380 2302 2191 2057 1946 1728 1562 1467 1424 1444 1416 1392 1300 933 604 529 658 923 1012 993 962 916 846 761 719 654 585 525 462 162 340 398 420 438 244 113 134 134
1299 1278 1256 1243 1280 1364 1376 1364 1335 1328 1333 1342 1342 1358 1388 1478 1594 1708 1880 1985 1993 1938 1875 1830 1830 2050 2170 2170 2104 2061 2098 2190 2288 2373 2430 2484 2548 2598 2628 2647 2652 2637 2620 2585 2533 2476 2434 2376 2330 2246 2136 2006 1852 1663 1513 1447 1406 1369 1367 1395 1388 1298 1077 850 650 586 664 775 838 853 816 761 699 660 582 523 477 400 418 90 419 132 78 114 188
1356 1354 1344 1326 1318 1337 1406 1420 1414 1400 1409 1420 1426 1434 1432 1466 1551 1654 1776 1935 2047 2076 2038 1968 1940 1897 2000 2137 2220 2195 2172 2195 2257 2322 2393 2442 2502 2557 2576 2592 2614 2636 2647 2647 2638 2612 2547 2468 2392 2345 2266 2158 1986 1817 1637 1518 1428 1378 1344 1334 1340 1334 1308 1231 1130 987 861 699 588 529 494 495 496 516 532 553 547 504 416 165 250 258 78 72 108
1367 1398 1412 1415 1402 1385 1382 1460 1484 1478 1473 1502 1532 1553 1570 1568 1580 1630 1705 1791 1925 2072 2126 2095 2019 1962 1910 1884 1976 2078 2134 2160 2200 2264 2325 2404 2479 2536 2578 2590 2592 2603 2632 2661 2678 2688 2665 2612 2554 2495 2416 2320 2198 2041 1876 1718 1606 1516 1438 1361 1308 1282 1259 1213 1204 1158 1082 972 909 796 690 618 532 460 447 407 381 214 73 2 94 145 84 37 356
1413 1438 1466 1466 1449 1436 1420 1471 1545 1573 1577 1590 1596 1627 1668 1706 1711 1716 1728 1760 1801 1915 2064 2149 2158 2105 2042 1964 1890 1948 1977 1990 2030 2151 2260 2346 2447 2546 2608 2648 2672 2669 2662 2663 2689 2708 2714 2714 2684 2650 2608 2552 2479 2384 2272 2168 2063 1959 1838 1688 1548 1408 1302 1244 1201 1170 1118 1053 978 909 834 753 688 606 533 422 173 46 43 1 10 45 0 0 7
1479 1481 1520 1530 1548 1539 1536 1574 1627 1667 1693 1686 1680 1683 1722 1772 1835 1842 1838 1842 1831 1827 1886 2004 2135 2204 2199 2148 2057 1984 2084 2109 2073 2088 2212 2348 2421 2542 2626 2704 2744 2779 2768 2756 2747 2738 2755 2763 2772 2766 2764 2748 2724 2669 2614 2561 2478 2402 2306 2178 2034 1878 1728 1616 1531 1443 1367 1303 1227 1163 1104 1058 979 868 770 684 564 404 46 24 4 2 0 0 21
1614 1582 1582 1630 1664 1685 1687 1699 1723 1757 1764 1794 1798 1789 1782 1809 1865 1915 1946 1960 1952 1906 1857 1872 1952 2070 2168 2197 2160 2086 2056 2160 2278 2296 2286 2342 2443 2500 2599 2674 2740 2794 2836 2860 2850 2824 2805 2796 2794 2781 2771 2762 2756 2734 2732 2724 2711 2672 2617 2537 2419 2289 2141 1987 1859 1736 1670 1578 1484 1394 1337 1304 1231 1172 1112 1006 893 732 609 396 240 1 0 0 1
1788 1725 1716 1735 1756 1777 1802 1833 1848 1851 1865 1870 1880 1883 1892 1888 1901 1943 2003 2036 2048 2010 1961 1914 1894 1919 1993 2083 2152 2173 2131 2058 2142 2397 2504 2519 2504 2494 2530 2603 2657 2699 2772 2827 2872 2878 2867 2852 2833 2822 2796 2776 2762 2757 2725 2702 2688 2683 2674 2670 2626 2557 2490 2392 2298 2177 2087 2016 1882 1816 1673 1583 1501 1401 1279 1187 1096 1041 954 835 710 598 552 468 475
2038 1981 1912 1897 1884 1889 1915 1940 1967 1982 1965 1942 1951 1976 1978 1978 1966 1984 2016 2058 2090 2082 2064 2028 1964 1912 1884 1900 1960 2050 2123 2157 2141 2112 2240 2480 2602 2615 2579 2535 2556 2600 2636 2689 2746 2799 2832 2841 2830 2808 2792 2779 2766 2765 2756 2768 2735 2699 2682 2651 2646 2635 2612 2558 2500 2434 2352 2230 2096 1984 1891 1750 1758 1678 1591 1497 1444 1356 1279 1217 1175 1106 1063 1008 1005
2268 2226 2175 2119 2078 2046 2036 2036 2060 2076 2128 2231 2278 2285 2224 2064 2046 2054 2057 2088 2116 2127 2120 2097 2047 1979 1910 1859 1837 1848 1913 2011 2107 2132 2127 2091 2249 2480 2565 2518 2477 2489 2531 2569 2599 2635 2683 2723 2755 2770 2760 2757 2761 2763 2759 2760 2732 2718 2696 2673 2636 2598 2547 2521 2511 2552 2583 2643 2660 2636 2675 2627 2562 2537 2536 2400 2338 2191 2084 2008 1920 1827 1739 1632 1473
2474 2453 2413 2372 2323 2271 2219 2180 2188 2331 2413 2480 2509 2497 2459 2401 2290 2121 2106 2111 2109 2105 2098 2064 2056 2036 2000 1929 1850 1799 1800 1856 1941 2031 2108 2142 2117 2072 2241 2387 2400 2420 2448 2486 2519 2531 2553 2605 2652 2690 2724 2737 2756 2768 2774 2750 2716 2692 2709 2710 2697 2856 2932 3032 3086 3103 3085 3048 3028 2948 2934 2959 2908 2888 2845 2701 2595 2510 2456 2312 2202 2142 2056 1947 1886
2700 2714 2678 2634 2595 2527 2460 2372 2531 2625 2690 2711 2712 2702 2719 2745 2737 2683 2488 2278 2135 2105 2064 2034 2006 1994 1982 1957 1921 1867 1803 1774 1801 1915 2038 2106 2132 2144 2126 2109 2159 2260 2346 2422 2474 2522 2563 2598 2626 2662 2687 2720 2754 2782 2806 2822 2816 2821 2814 2970 3090 3168 3236 3260 3182 3196 3180 3208 3224 3201 3210 3251 3220 3157 3114 3033 2938 2714 2240 2170 2136 2158 2068 1970 1985
2914 2998 2988 2936 2905 2820 2727 2685 2770 2872 2919 2932 2926 2934 2968 3029 3072 3062 2966 2764 2567 2304 2092 2030 1976 1917 1881 1876 1880 1898 1882 1841 1815 1779 1800 2022 2124 2178 2216 2219 2228 2236 2262 2296 2354 2438 2512 2570 2602 2649 2681 2714 2744 2790 2842 2886 2885 2937 3074 3182 3278 3310 3342 3265 3325 3417 3480 3466 3488 3453 3318 3114 3149 2979 2907 2956 2860 2808 2742 2372 2320 2428 2279 2212 1926
3015 3208 3289 3262 3220 3158 3050 2950 2980 3073 3109 3115 3114 3142 3174 3224 3267 3263 3231 3135 3000 2805 2549 2218 2023 1926 1866 1809 1791 1806 1829 1846 1845 1839 1808 1769 1932 2085 2180 2226 2261 2284 2303 2311 2332 2368 2443 2511 2592 2648 2694 2720 2746 2774 2723 2896 3030 3135 3213 3262 3334 3418 3509 3466 3516 3576 3635 3542 3407 3060 2961 3074 3095 3001 2903 2962 2783 2601 2554 2506 2504 2484 2470 2483 1958
2988 3203 3413 3513 3517 3466 3396 3297 3207 3242 3273 3278 3295 3332 3361 3378 3414 3418 3375 3308 3214 3094 2942 2742 2462 2112 1923 1854 1803 1775 1757 1824 1842 1864 1857 1827 1808 1932 2043 2113 2178 2236 2270 2292 2320 2356 2418 2476 2594 2668 2745 2798 2827 2938 3042 3127 3276 3428 3500 3592 3663 3736 3753 3775 3728 3432 3645 3384 3308 3169 3181 3146 3296 3101 2961 2754 2921 2786 2718 2718 2794 2807 2642 2247 2157
3000 3132 3377 3604 3700 3707 3660 3592 3530 3481 3438 3469 3468 3497 3506 3529 3544 3537 3506 3459 3373 3273 3149 2989 2800 2568 2274 1986 1912 1868 1835 1982 2052 2092 2113 2106 2100 2100 2144 2220 2285 2344 2387 2429 2492 2598 2710 2800 2889 2938 2992 3056 3118 3240 3339 3450 3539 3685 3790 3883 3906 3952 3942 3989 3966 3856 3448 3455 3103 3045 3167 3252 3090 3166 3232 3164 3223 3094 2917 2844 2757 2639 2515 2439 2412
3272 3306 3336 3522 3718 3798 3827 3810 3751 3714 3673 3652 3666 3655 3653 3652 3655 3644 3602 3549 3499 3418 3304 3154 2992 2828 2628 2383 2108 2037 2098 2129 2246 2314 2369 2406 2430 2450 2468 2500 2537 2594 2664 2734 2832 2921 3000 3032 3056 3104 3156 3295 3430 3570 3676 3775 3858 3894 3956 3981 3968 3993 4040 3999 3953 3869 3750 3760 3658 3776 3740 3610 3572 3523 3417 3254 3082 2887 2676 2484 2385 2310 2274 2232 2313
3757 3742 3709 3693 3699 3684 3748 3874 3891 3867 3840 3812 3785 3773 3757 3762 3757 3737 3700 3646 3583 3524 3430 3319 3190 3040 2870 2678 2442 2274 2226 2207 2238 2387 2500 2610 2665 2725 2763 2810 2858 2912 2972 3028 3077 3084 3086 3081 3148 3311 3486 3636 3758 3827 3896 3934 3950 3964 4009 4065 4064 4007 3885 3837 3810 3745 3605 3491 3349 3192 2766 2118 1506 1031 976 963 1029 1185 1349 1475 1578 1651 1715 1782 1829
3883 3914 3896 3890 3870 3848 3856 3826 3793 3911 3919 3908 3895 3876 3854 3838 3830 3820 3769 3707 3642 3574 3509 3409 3307 3183 3051 2877 2699 2571 2398 2357 2351 2344 2434 2653 2805 2894 2956 3014 3067 3107 3132 3173 3112 3117 3290 3478 3578 3690 3789 3869 3946 3988 4036 4065 4108 4127 4076 3946 3725 3640 3494 3270 2976 2582 1712 654 9 16 44 81 117 182 266 336 447 633 826 1023 1201 1294 1298 1293 1268
3682 3852 3941 3966 3971 3940 3943 3920 3916 3912 3897 3957 3964 3943 3924 3909 3901 3878 3822 3779 3719 3635 3570 3487 3402 3291 3152 3011 2868 2832 2740 2688 2590 2511 2580 2623 2701 2868 2984 3050 3112 3104 3200 3377 3500 3654 3765 3810 3878 3942 3975 3998 4110 4192 4160 4089 3945 3715 3592 3490 3306 2813 2363 1343 0 0 0 2 4 6 8 30 78 136 195 274 341 427 528 596 706 841 1003 1060 1058
3343 3254 3323 3543 3727 3827 3871 3891 3898 3905 3912 3969 3983 3966 3958 3942 3950 3918 3853 3813 3742 3666 3602 3546 3474 3374 3262 3137 3063 3083 3098 3070 3074 2971 2817 2672 2857 2944 3104 3348 3542 3645 3722 3825 3826 3883 3985 4021 4057 4098 4211 4297 4172 3863 3665 3585 3499 3452 3068 2353 1383 45 0 0 0 0 0 0 0 0 0 0 0 0 1 14 56 124 198 289 418 562 723 844 872
3671 3221 3206 3477 3562 3592 3654 3696 3740 3826 3920 3973 3991 3999 3976 3972 3946 3907 3880 3823 3776 3698 3638 3600 3527 3436 3363 3224 3262 3352 3430 3472 3471 3409 3303 3330 3541 3710 3841 3899 3950 4023 4002 4084 4146 4178 4146 4242 4358 4368 4048 3798 3604 3496 3405 3282 2858 2277 1272 126 0 0 0 0 0 0 0 0 0 0 0 0 0 0 0 0 2 2 8 44 114 199 282 417 514
4407 3666 3190 3481 3694 3750 3735 4210 4030 3831 3914 3988 4086 4028 4025 4011 3979 3954 3887 3840 3794 3757 3706 3629 3578 3535 3474 3402 3558 3720 3838 3866 3820 3768 3670 3822 4026 4129 4209 4256 4287 4323 4403 4474 4509 4464 4437 4268 3956 3666 3498 3452 3374 3135 2744 2382 1480 159 0 0 0 0 0 0 0 0 0 0 0 0 0 0 0 0 0 0 1 0 0 6 16 33 82 192 275
4770 4404 3852 3412 3713 3919 3964 4170 4068 3990 4018 4034 4068 4072 4092 4118 4033 4016 3964 3937 3880 3836 3765 3700 3672 3626 3640 3792 3979 4153 4224 4218 4145 4026 4002 3977 3995 3993 4080 4174 4136 4144 4124 4074 3942 3721 3543 3486 3436 3407 3273 3041 2830 2567 1743 0 0 0 0 0 0 0 0 0 0 0 0 0 0 0 0 0 0 0 1 2 2 1 2 7 12 24 26 45 68
4814 4628 4288 3892 3719 4095 4307 4523 4312 4200 4156 4156 4156 4182 4173 4228 4286 4275 4264 4083 4060 4041 3960 3937 4057 4212 4267 4372 4454 4519 4511 4445 4322 4258 4247 4192 4114 3972 3848 3718 3674 3646 3652 3650 3574 3481 3370 3265 3086 2910 2801 2627 1905 158 0 0 0 0 0 0 0 0 0 0 0 0 0 0 0 0 1 2 2 4 4 4 4 4 4 2 5 8 12 18 30
4726 4623 4384 4132 3954 4324 4551 4591 4493 4422 4330 4294 4256 4269 4262 4342 4396 4495 4501 4555 4426 4354 4288 4463 4604 4745 4817 4811 4717 4685 4651 4500 4316 4241 4170 4042 3905 3851 3780 3713 3709 3632 3548 3392 3362 3251 3118 2852 2574 2220 1456 208 1 1 2 1 2 1 0 0 0 0 0 0 0 0 0 0 0 0 1 1 2 4 3 4 5 5 6 3 6 13 17 26 32
4723 4688 4376 4124 4197 4385 4477 4510 4533 4509 4466 4447 4448 4430 4412 4370 4430 4619 4745 4828 4903 4915 4896 4990 5049 5070 5099 5016 4946 4761 4648 4557 4364 4194 3976 3883 3847 3820 3724 3583 3454 3376 3365 3289 3101 2992 2574 2164 1404 225 1 2 2 4 3 4 4 3 2 1 0 0 0 0 0 0 0 0 0 0 0 0 1 2 1 1 0 0 2 2 0 2 9 26 32
4530 4698 4559 4338 4333 4375 4410 4461 4454 4499 4507 4502 4571 4612 4596 4580 4595 4626 4876 5066 5184 5264 5315 5279 5247 5226 5160 5116 5002 4792 4675 4518 4319 4180 4056 3952 3858 3769 3635 3496 3349 3268 3290 3244 2930 2392 1622 345 2 4 4 4 5 6 6 6 6 4 4 2 0 0 0 0 0 0 0 0 0 0 0 0 0 0 1 2 2 4 4 4 1 1 2 2 3
4327 4556 4668 4484 4457 4480 4488 4471 4458 4498 4516 4521 4592 4705 4805 4848 4814 4860 4881 4916 4958 5079 5169 5189 5230 5189 5017 4934 4911 4814 4499 4312 4220 4018 3897 3676 3456 3380 3443 3399 3318 3190 2950 2771 2272 1069 3 3 5 5 5 6 7 7 6 6 4 4 2 2 1 1 0 0 0 0 0 0 0 0 0 0 0 0 0 0 0 0 3 7 9 7 5 5 4
4077 4409 4576 4615 4527 4538 4541 4512 4492 4485 4546 4622 4687 4783 4904 4940 4971 4910 4742 4455 4276 4431 4620 4856 4972 4960 4929 4733 4634 4661 4279 3883 3817 3776 3566 3401 3248 3297 3222 3071 3081 3008 2759 1892 2 3 4 6 4 5 6 6 6 6 2 4 4 2 2 0 0 0 0 0 0 0 0 0 0 0 0 0 0 0 0 0 0 0 0 1 2 4 5 11 15
3924 4243 4479 4587 4587 4613 4608 4595 4596 4584 4598 4686 4749 4819 4850 4854 4815 4677 4508 4329 4108 4274 4506 4636 4612 4502 4330 4164 3945 3751 3510 3268 3090 3028 3038 3013 2952 2984 3078 2980 2338 1298 2 3 2 4 5 6 6 6 7 5 6 4 4 3 3 2 2 1 0 0 0 0 0 0 0 0 0 0 0 0 0 0 0 0 0 0 0 0 1 0 0 0 5
3706 3860 4252 4475 4581 4671 4756 4796 4814 4809 4791 4766 4765 4754 4712 4690 4668 4579 4472 4412 4232 4075 4209 4004 3850 3819 3659 3426 3218 3075 2961 2907 2802 2807 2838 3020 3111 3216 2716 1126 0 2 3 3 4 4 5 7 8 6 5 4 4 4 3 2 2 1 0 0 0 0 0 0 0 0 0 0 0 0 0 0 0 0 0 0 0 0 0 0 0 0 0 1 0
3465 3695 3839 4126 4305 4442 4514 4679 4784 4847 4855 4798 4725 4691 4587 4620 4535 4348 4302 4288 4004 3828 3768 3746 3570 3495 3370 3154 2810 2821 2925 2800 2943 3073 3074 3102 3165 2350 872 1 1 0 2 5 5 5 4 6 6 4 5 4 2 2 1 1 1 0 0 0 0 0 0 0 0 0 0 0 0 0 0 0 0 0 0 0 0 0 0 0 0 0 0 0 0
3038 3511 3694 3768 3911 4102 4271 4356 4402 4428 4486 4510 4469 4438 4492 4444 4342 4206 4168 4133 3817 3531 3531 3604 3449 3370 3091 3106 3199 3054 2737 2701 2482 2350 2370 1771 1051 0 1 1 2 2 2 4 6 4 3 3 4 4 4 3 2 0 0 0 0 0 0 0 0 0 0 0 0 0 0 0 0 0 0 0 0 0 0 0 0 0 0 0 0 0 0 0 0
2571 2949 3340 3612 3707 3772 3916 4109 4211 4151 4176 4183 4169 4165 4239 4192 4097 3888 3716 3215 3314 3327 3314 3280 3332 3342 2889 2387 2512 2372 2238 2256 1981 1763 1376 731 0 0 0 0 0 0 0 1 1 1 0 1 0 0 0 0 0 0 0 0 0 0 0 0 0 0 0 0 0 0 0 0 0 0 0 0 0 0 0 0 0 0 0 0 0 0 0 0 0
2316 2630 3052 3278 3478 3674 3775 3813 3916 3912 3870 3825 3850 3888 3924 3489 3259 3125 3138 3022 2892 2857 2803 2835 2982 2864 2590 2189 1916 1732 1618 1596 1484 864 8 0 0 0 0 0 0 0 0 0 0 0 0 0 0 0 0 0 0 0 0 0 0 0 0 0 0 0 0 0 0 0 0 0 0 0 0 0 0 0 0 0 0 0 0 0 0 0 0 0 0
1860 2222 2608 3076 3102 3258 3469 3554 3612 3685 3552 3518 3595 3524 3278 2892 2839 2888 2796 2750 2585 2545 2688 2687 2543 2209 1776 1544 1454 1326 1262 773 0 0 0 0 0 0 0 0 0 0 0 0 0 0 0 0 0 0 0 0 0 0 0 0 0 0 0 0 0 0 0 0 0 0 0 0 0 0 0 0 0 0 0 0 0 0 0 0 0 0 0 0 0
1468 1671 2064 2599 2834 2903 3172 3373 3312 3113 3061 3048 2908 2773 2741 2766 2798 2710 2352 2240 2289 2311 2275 2226 1949 1261 514 124 0 0 0 0 0 1 1 1 0 0 1 2 1 0 0 0 0 0 0 0 0 0 0 0 0 0 0 0 0 0 0 0 0 0 0 0 0 0 0 0 0 0 0 0 0 0 0 0 0 0 0 0 0 0 0 0 0
1191 1364 1594 1948 2336 2696 2939 3109 2958 2796 2633 2678 2560 2508 2463 2612 2774 2664 2313 2110 2122 2071 2052 1916 1430 174 0 0 0 0 0 0 1 1 0 0 0 0 1 2 0 0 0 0 0 0 0 0 0 0 0 0 0 0 0 0 0 0 0 0 0 0 0 0 0 0 0 0 0 0 0 0 0 0 0 0 0 0 0 0 0 0 0 0 0
1072 1194 1376 1646 1889 2119 2608 2877 2784 2399 2187 2106 2228 2218 2116 2054 2197 2339 2209 2053 1960 1935 1780 1372 380 0 0 0 0 1 1 0 0 0 0 0 0 0 0 0 0 0 0 0 0 0 0 0 0 0 0 0 0 0 0 0 0 0 0 0 0 0 0 0 0 0 0 0 0 0 0 0 0 0 0 0 0 0 0 0 0 0 0 0 0
1022 1179 1272 1366 1586 1900 2129 2338 2552 2487 2109 1849 2121 2130 1887 1813 1697 1636 1621 1644 1557 1432 1341 644 0 0 0 0 0 0 0 0 0 1 3 6 6 3 0 0 0 0 0 0 0 0 0 0 0 0 0 0 0 0 0 0 0 0 0 0 0 0 0 0 0 0 0 0 0 0 0 0 0 0 0 0 0 0 0 0 0 0 0 0 0
897 1041 1113 1236 1356 1524 1549 1568 1628 1644 1526 1946 1759 1578 1426 1206 990 873 782 1104 962 778 417 0 0 0 0 0 0 1 3 5 4 2 2 0 4 7 6 5 3 1 0 0 0 0 0 0 0 0 0 0 0 0 0 0 0 0 0 0 0 0 0 0 0 0 0 0 0 0 0 0 0 0 0 0 0 0 0 0 0 0 0 0 0
729 796 880 938 1114 1222 1323 1402 1412 1434 1288 1148 1069 1011 938 877 788 665 728 605 206 0 0 2 4 4 5 5 3 2 6 8 6 4 2 5 8 10 10 8 3 4 4 4 2 1 0 0 0 0 0 0 0 0 0 0 0 0 0 0 0 0 0 0 0 0 0 0 0 0 0 0 0 0 0 0 0 0 0 0 0 0 0 0 0
524 568 590 579 561 573 612 752 822 908 938 819 725 797 862 715 666 618 340 0 0 1 3 6 9 10 9 6 2 7 4 3 2 0 2 2 2 5 8 11 10 7 8 6 5 4 4 3 2 0 0 0 0 0 0 0 0 0 0 0 0 0 0 0 0 0 0 0 0 0 0 0 0 0 0 0 0 0 0 0 0 0 0 0 0
322 311 322 311 269 243 147 90 0 85 138 58 178 3 120 138 6 5 5 4 4 3 3 2 5 4 5 3 8 8 8 6 4 4 5 5 3 3 6 10 11 6 7 8 6 6 6 6 6 6 5 3 2 0 0 0 0 0 0 0 0 0 0 0 0 0 0 0 0 0 0 0 0 0 0 0 0 0 0 0 0 0 0 0 0
146 150 139 129 110 74 43 33 28 24 20 17 18 18 19 17 14 13 14 12 9 5 3 1 0 2 6 5 5 5 5 5 6 12 15 12 10 8 8 9 10 11 10 6 6 4 4 4 5 3 5 4 2 3 7 9 4 0 0 0 0 0 5 7 6 0 0 0 0 0 0 0 0 0 0 0 0 0 0 0 0 0 0 0 0
Wind_Speed
4 6 8 8 8 8 9 11 11 12 11 10 10 11 11 10 10 10 11 8 6 4 2 0 2 4 5 6 7 9 10 11 12 12 12 12 13 13 14 15 16 14 14 16 17 17 15 13 12 11 8 nan 9 9 10 10 9 11 10 12 13 12 14 nan nan nan nan nan nan nan nan nan nan nan nan nan nan nan 20 21 nan nan nan nan nan
3 5 7 7 6 8 9 11 11 11 10 11 11 11 11 10 10 11 8 7 6 4 2 3 3 5 6 7 8 8 10 11 12 13 12 12 12 12 13 15 14 14 14 15 16 17 16 13 11 10 9 10 9 nan 11 10 10 10 10 11 12 12 13 14 nan nan nan nan nan nan 11 14 13 15 19 19 nan nan nan 22 22 24 24 nan nan
3 5 5 6 6 8 10 11 11 10 9 11 10 10 11 11 10 8 8 8 8 5 5 4 5 6 6 7 8 8 9 10 11 13 13 13 12 11 12 13 14 13 14 15 16 16 16 14 11 9 8 9 10 11 10 11 10 11 11 11 12 12 13 14 13 13 13 nan nan nan nan nan 18 16 18 19 19 21 nan 23 24 24 25 nan nan
5 5 6 6 6 8 10 11 10 9 8 10 9 10 11 11 10 9 8 9 7 7 7 6 6 7 7 7 8 8 9 9 10 11 12 13 12 12 11 12 12 11 12 13 13 15 17 14 11 9 8 9 10 11 11 11 12 12 12 12 13 14 13 13 14 14 12 13 12 nan nan nan nan nan nan 19 21 22 25 25 24 25 26 28 nan
6 5 6 5 6 7 8 10 10 9 9 10 9 10 10 10 11 9 9 8 8 9 8 8 7 7 7 7 7 7 8 10 11 11 11 11 11 11 10 10 10 10 10 10 11 13 15 15 12 8 8 9 9 11 12 13 13 13 14 13 14 14 13 15 15 15 14 15 12 15 16 16 17 18 21 21 21 23 25 28 29 29 29 30 31
6 6 6 6 7 6 7 9 9 9 9 10 10 10 10 10 10 10 10 8 8 8 8 8 8 6 6 5 6 7 8 9 10 11 11 10 9 9 8 8 8 9 9 9 10 11 13 13 11 8 7 8 10 11 12 13 12 13 13 14 14 14 14 15 16 16 16 15 15 13 19 20 18 20 24 27 25 24 25 28 29 31 31 31 32
8 8 8 7 8 8 8 9 11 12 12 12 13 12 11 10 10 10 11 9 8 8 8 7 7 7 5 5 5 6 7 8 8 9 10 10 9 8 7 7 7 7 7 9 9 10 11 11 9 7 7 7 9 11 12 11 12 13 13 14 14 15 15 16 17 17 17 16 15 17 16 20 24 19 22 27 26 27 27 nan 28 32 nan 35 33
9 10 10 10 10 9 10 11 12 12 13 13 12 11 11 11 11 11 11 9 8 7 7 7 7 8 6 5 5 6 6 7 8 9 9 9 8 7 6 6 6 6 5 6 8 9 10 9 8 6 7 8 9 10 11 11 11 11 11 12 13 15 15 16 17 17 17 16 17 15 18 18 21 23 24 28 25 24 30 33 29 29 nan nan 36
9 9 10 10 10 11 13 14 15 14 13 12 11 10 10 11 11 11 10 9 9 7 7 7 7 6 6 6 5 6 6 6 7 8 9 9 8 6 5 4 4 4 4 4 6 7 7 7 7 8 10 12 14 12 11 12 11 11 12 14 14 16 15 16 18 18 18 18 16 17 18 20 22 24 26 31 33 31 nan nan nan 30 nan nan 33
9 9 9 9 12 14 15 16 15 14 12 11 11 11 12 13 12 10 9 7 7 7 7 6 6 6 6 5 5 6 6 6 7 11 10 8 8 6 4 3 3 3 3 3 3 4 5 5 7 13 14 15 15 15 16 17 17 15 13 16 18 19 19 19 21 22 22 21 21 20 21 22 23 27 28 30 33 nan nan nan nan nan nan nan nan
10 9 9 12 13 13 14 13 13 12 11 12 13 13 12 13 12 11 9 8 7 7 6 5 5 6 5 5 5 5 6 6 10 11 11 11 7 5 3 2 3 2 1 1 2 3 4 6 7 9 11 12 13 17 18 18 19 20 20 20 21 23 21 22 22 24 25 25 23 24 24 21 22 26 29 29 33 36 nan nan nan nan nan nan nan
9 10 11 12 12 11 11 11 11 10 12 12 12 13 14 13 12 11 10 8 7 7 5 5 5 6 6 5 4 5 6 7 10 10 11 11 8 4 2 2 2 1 1 2 3 3 5 5 6 6 8 11 11 11 14 17 18 19 20 21 23 24 26 26 24 25 27 26 25 26 26 25 23 26 29 32 33 37 39 41 42 nan nan nan nan
8 9 11 12 11 11 11 9 9 9 9 11 13 14 13 11 10 10 8 8 9 6 5 5 5 6 5 5 4 5 5 7 9 9 9 10 10 6 1 0 0 2 3 4 5 5 5 6 6 7 7 12 12 12 12 14 18 21 22 22 23 25 25 27 29 28 28 28 27 25 29 29 27 27 32 35 39 39 43 44 45 46 46 46 43
6 6 8 8 8 9 9 8 8 8 9 11 12 11 10 8 9 10 10 10 7 5 6 5 6 7 6 6 5 4 4 4 8 8 8 9 9 7 3 3 3 4 5 5 5 7 8 8 7 7 7 9 12 14 15 16 17 19 22 24 25 26 27 28 28 27 27 28 27 25 26 35 32 31 34 42 44 43 45 45 47 47 48 49 47
6 4 3 3 3 5 5 6 6 7 8 9 9 7 7 8 9 10 9 8 7 7 7 7 7 8 7 7 6 4 3 3 5 6 6 7 7 6 2 4 5 6 6 5 6 8 8 8 7 7 8 11 14 16 17 18 19 19 20 22 26 27 27 28 30 33 32 32 30 29 27 32 36 35 35 43 46 44 46 46 46 46 46 48 46
7 5 3 2 1 1 1 2 3 4 5 5 5 4 5 7 9 11 10 10 9 10 10 9 8 7 7 7 7 4 3 3 5 4 5 5 7 4 0 3 4 6 6 5 6 6 6 7 7 8 10 13 16 20 21 21 21 20 20 20 21 23 25 28 31 33 33 34 34 34 32 33 38 39 39 43 46 46 47 48 46 46 49 52 48
8 5 3 1 1 1 1 2 2 3 3 3 3 3 5 7 9 12 11 10 11 10 10 11 10 10 10 9 7 6 6 6 6 5 5 8 9 4 3 1 2 4 5 4 4 5 5 7 9 10 12 14 17 20 23 25 22 21 21 20 20 21 21 30 35 34 33 35 36 37 36 36 38 39 40 44 48 48 52 53 51 52 56 54 51
9 6 4 3 4 4 4 4 3 4 4 4 3 4 5 8 9 12 10 11 11 11 13 14 14 13 12 9 8 8 8 10 9 7 7 10 9 6 5 3 1 1 2 2 2 3 5 9 11 12 13 15 17 21 24 28 24 22 22 21 19 20 23 33 37 36 38 38 39 40 40 39 39 40 40 41 43 47 54 54 51 54 58 62 60
10 8 7 6 6 7 7 6 5 5 5 5 5 6 7 8 10 12 11 11 12 14 16 16 15 15 13 11 9 8 9 9 8 8 9 11 9 8 7 5 3 2 2 1 3 5 7 9 11 14 15 15 18 22 25 29 25 24 26 26 23 21 25 35 37 38 38 37 34 37 37 37 37 40 39 37 38 42 50 51 49 52 54 58 65
14 13 11 10 10 10 11 9 8 8 7 7 7 7 9 10 12 12 12 13 14 17 17 17 15 15 15 14 14 11 9 10 10 9 12 11 10 8 8 5 3 2 4 5 6 9 11 13 14 15 17 17 18 20 23 29 29 26 29 30 28 24 27 33 38 41 48 43 35 39 39 39 40 41 40 40 40 42 45 48 50 52 53 53 63
21 18 16 14 13 13 13 12 11 11 11 10 9 10 11 12 13 13 13 15 16 17 17 17 17 16 18 17 16 14 12 11 12 13 12 12 11 10 8 5 4 6 7 8 10 12 14 17 19 19 20 22 25 25 25 27 31 30 31 32 32 30 35 35 36 51 60 48 38 38 39 38 39 41 42 43 43 43 45 47 48 50 53 54 58
23 22 19 17 15 14 14 15 14 14 14 14 14 12 13 13 14 14 16 17 16 16 18 19 19 19 20 20 18 15 14 10 14 15 13 12 14 14 9 7 10 11 10 11 14 16 18 21 24 34 37 37 35 35 34 36 36 38 35 34 30 29 34 39 40 46 57 59 51 45 43 42 43 46 47 46 45 46 48 49 51 52 54 56 56
29 25 22 19 16 15 16 16 17 18 17 16 16 14 15 15 15 16 17 17 17 17 18 19 20 20 22 22 20 17 17 16 12 15 13 14 15 16 16 12 14 15 15 15 18 20 27 31 35 35 34 33 32 31 33 35 38 39 36 35 36 35 38 44 45 48 57 60 57 52 49 48 47 47 47 46 46 47 48 49 49 50 52 53 55
33 30 26 21 19 18 18 18 19 19 18 19 18 17 17 17 16 16 17 17 17 17 19 21 21 21 21 22 21 20 20 19 16 12 14 14 15 17 16 14 14 20 21 23 29 32 33 33 34 35 35 34 33 33 35 38 39 38 37 38 38 40 44 46 48 51 54 57 nan nan nan nan 51 48 47 47 46 45 45 45 44 46 48 50 52
33 29 27 25 23 22 21 20 20 21 22 23 22 21 20 20 18 17 17 16 15 15 18 22 22 22 22 21 21 22 26 28 28 24 20 16 14 13 13 15 19 28 30 31 32 33 35 36 37 38 37 36 36 37 39 41 40 39 39 38 41 46 47 48 nan nan nan nan nan nan nan nan nan 48 46 44 42 42 43 42 43 43 45 47 48
34 31 30 28 26 27 25 23 22 23 25 26 26 25 24 22 19 18 17 16 15 14 16 21 22 24 23 22 22 28 31 31 30 28 27 26 23 21 21 23 23 25 29 33 36 40 41 41 40 39 40 40 40 41 41 41 38 37 38 41 46 nan nan nan nan nan nan nan nan nan nan nan nan nan nan nan nan 41 41 39 39 40 43 46 46
36 35 33 32 32 31 28 28 28 28 28 30 29 29 28 26 23 20 18 17 17 15 16 20 23 25 24 24 29 31 31 32 31 30 30 30 30 30 31 31 32 34 34 35 38 39 41 41 41 40 41 42 43 42 42 40 41 42 44 46 nan nan nan nan nan nan nan nan nan nan nan nan nan nan nan nan nan nan nan nan 40 39 42 44 45
40 39 37 38 37 35 33 32 31 31 32 33 33 31 31 30 28 25 22 21 20 18 17 19 22 25 25 28 31 31 31 31 30 30 31 32 33 34 34 36 35 35 38 39 40 41 42 42 42 42 42 43 44 44 43 43 44 44 nan nan nan nan nan nan nan nan nan nan nan nan nan nan nan nan nan nan nan nan nan nan nan nan nan 45 48
40 41 41 41 40 39 39 38 38 40 44 46 47 44 40 38 36 35 33 30 24 22 20 19 21 24 27 30 31 30 30 29 27 30 33 34 37 38 37 38 39 39 41 45 45 43 43 44 44 44 44 45 45 45 44 nan nan nan nan nan nan nan nan nan nan nan nan nan nan nan nan nan nan nan nan nan nan nan nan nan nan nan nan nan nan
37 37 38 38 40 41 41 41 43 42 42 44 46 49 52 51 46 41 38 36 35 27 24 22 22 26 30 30 30 30 27 29 39 42 41 43 44 45 45 45 44 45 44 45 45 46 46 47 46 46 46 46 47 46 nan nan nan nan nan nan nan nan nan nan nan nan nan nan nan nan nan nan nan nan nan nan nan nan nan nan nan nan nan nan nan
34 34 35 34 34 36 38 40 40 41 40 41 42 44 45 52 57 55 49 46 44 40 32 29 30 30 32 33 36 43 47 47 46 45 47 47 49 50 50 50 51 50 47 49 47 47 48 49 48 48 49 48 nan nan nan nan nan nan nan nan nan nan nan nan nan nan nan nan nan nan nan nan nan nan nan nan nan nan nan nan nan nan nan nan nan
31 31 31 32 33 34 35 35 36 37 38 38 39 40 42 45 50 56 58 56 56 53 47 44 41 40 39 40 41 41 44 47 48 49 50 50 51 52 52 51 50 50 47 51 52 50 50 51 51 50 nan nan nan nan nan nan nan nan nan nan nan nan nan nan nan nan nan nan nan nan nan nan nan nan nan nan nan nan nan nan nan nan nan nan nan
32 31 31 32 33 34 34 34 33 34 35 36 36 37 39 41 45 47 52 59 62 60 56 52 50 49 49 48 47 45 44 46 50 51 52 53 54 54 55 54 52 49 51 53 54 53 52 52 nan nan nan nan nan nan nan nan nan nan nan nan nan nan nan nan nan nan nan nan nan nan nan nan nan nan nan nan nan nan nan nan nan nan nan nan nan
31 30 31 32 34 34 34 33 34 33 34 35 35 36 37 38 41 43 46 47 53 56 58 57 53 54 53 52 52 52 51 51 53 54 54 55 56 56 57 53 53 49 52 54 55 55 nan nan nan nan nan nan nan nan nan nan nan nan nan nan nan nan nan nan nan nan nan nan nan nan nan nan nan nan nan nan nan nan nan nan nan nan nan nan nan
33 33 34 34 34 35 35 35 35 34 34 35 36 38 39 38 39 41 42 45 48 49 48 49 53 55 53 52 53 54 54 55 55 56 56 55 56 57 56 56 56 54 54 54 nan nan nan nan nan nan nan nan nan nan nan nan nan nan nan nan nan nan nan nan nan nan nan nan nan nan nan nan nan nan nan nan nan nan nan nan nan nan nan nan nan
34 35 36 37 37 36 36 35 35 35 35 36 37 40 40 40 41 42 44 46 48 49 49 51 51 54 60 58 56 56 57 57 56 56 56 57 55 50 55 56 57 55 nan nan nan nan nan nan nan nan nan nan nan nan nan nan nan nan nan nan nan nan nan nan nan nan nan nan nan nan nan nan nan nan nan nan nan nan nan nan nan nan nan nan nan
39 37 38 38 39 39 40 39 38 39 39 39 40 41 42 43 43 44 45 46 47 48 50 50 53 55 57 55 56 58 58 58 58 58 57 56 52 52 55 56 nan nan nan nan nan nan nan nan nan nan nan nan nan nan nan nan nan nan nan nan nan nan nan nan nan nan nan nan nan nan nan nan nan nan nan nan nan nan nan nan nan nan nan nan nan
44 42 40 41 41 42 42 41 42 43 41 40 40 42 43 44 45 45 45 47 48 50 49 48 50 53 55 54 54 55 59 60 62 60 56 53 53 56 56 nan nan nan nan nan nan nan nan nan nan nan nan nan nan nan nan nan nan nan nan nan nan nan nan nan nan nan nan nan nan nan nan nan nan nan nan nan nan nan nan nan nan nan nan nan nan
46 48 50 48 44 42 42 42 42 42 42 42 41 42 45 46 47 46 46 48 49 49 48 47 47 48 51 53 56 56 61 58 58 58 58 55 56 nan nan nan nan nan nan nan nan nan nan nan nan nan nan nan nan nan nan nan nan nan nan nan nan nan nan nan nan nan nan nan nan nan nan nan nan nan nan nan nan nan nan nan nan nan nan nan nan
47 46 47 50 46 46 44 44 43 44 43 44 43 43 46 48 49 49 48 49 49 48 48 48 47 45 46 50 55 57 61 59 59 58 58 58 nan nan nan nan nan nan nan nan nan nan nan nan nan nan nan nan nan nan nan nan nan nan nan nan nan nan nan nan nan nan nan nan nan nan nan nan nan nan nan nan nan nan nan nan nan nan nan nan nan
49 49 47 47 48 48 47 46 45 45 45 44 44 45 47 49 50 51 50 50 49 49 49 50 48 45 46 50 53 55 58 58 58 59 nan nan nan nan nan nan nan nan nan nan nan nan nan nan nan nan nan nan nan nan nan nan nan nan nan nan nan nan nan nan nan nan nan nan nan nan nan nan nan nan nan nan nan nan nan nan nan nan nan nan nan
50 50 50 48 47 49 48 47 48 49 48 47 47 47 48 50 51 52 52 51 51 51 52 51 50 50 52 58 58 59 57 56 nan nan nan nan nan nan nan nan nan nan nan nan nan nan nan nan nan nan nan nan nan nan nan nan nan nan nan nan nan nan nan nan nan nan nan nan nan nan nan nan nan nan nan nan nan nan nan nan nan nan nan nan nan
52 51 51 51 50 48 49 49 50 53 52 50 50 50 51 51 51 53 54 54 53 53 54 55 55 55 57 59 nan nan nan nan nan nan nan nan nan nan nan nan nan nan nan nan nan nan nan nan nan nan nan nan nan nan nan nan nan nan nan nan nan nan nan nan nan nan nan nan nan nan nan nan nan nan nan nan nan nan nan nan nan nan nan nan nan
53 52 52 52 52 52 51 50 53 55 56 56 54 53 53 53 53 54 56 57 57 57 57 57 57 58 nan nan nan nan nan nan nan nan nan nan nan nan nan nan nan nan nan nan nan nan nan nan nan nan nan nan nan nan nan nan nan nan nan nan nan nan nan nan nan nan nan nan nan nan nan nan nan nan nan nan nan nan nan nan nan nan nan nan nan
51 52 53 53 52 53 54 53 53 56 58 58 56 55 55 56 56 56 58 59 60 61 60 60 60 nan nan nan nan nan nan nan nan nan nan nan nan nan nan nan nan nan nan nan nan nan nan nan nan nan nan nan nan nan nan nan nan nan nan nan nan nan nan nan nan nan nan nan nan nan nan nan nan nan nan nan nan nan nan nan nan nan nan nan nan
50 51 53 53 54 54 55 55 55 55 57 58 59 59 59 59 59 60 61 61 61 61 61 62 nan nan nan nan nan nan nan nan nan nan nan nan nan nan nan nan nan nan nan nan nan nan nan nan nan nan nan nan nan nan nan nan nan nan nan nan nan nan nan nan nan nan nan nan nan nan nan nan nan nan nan nan nan nan nan nan nan nan nan nan nan
53 54 55 56 56 56 56 56 57 57 59 60 60 61 61 61 61 62 63 65 64 63 63 nan nan nan nan nan nan nan nan nan nan nan nan nan nan nan nan nan nan nan nan nan nan nan nan nan nan nan nan nan nan nan nan nan nan nan nan nan nan nan nan nan nan nan nan nan nan nan nan nan nan nan nan nan nan nan nan nan nan nan nan nan nan
56 57 57 57 59 60 60 60 63 63 63 63 63 63 64 65 65 65 64 65 67 nan nan nan nan nan nan nan nan nan nan nan nan nan nan nan nan nan nan nan nan nan nan nan nan nan nan nan nan nan nan nan nan nan nan nan nan nan nan nan nan nan nan nan nan nan nan nan nan nan nan nan nan nan nan nan nan nan nan nan nan nan nan nan nan
59 60 61 61 61 62 63 65 65 65 66 66 67 69 69 70 70 69 70 nan nan nan nan nan nan nan nan nan nan nan nan nan nan nan nan nan nan nan nan nan nan nan nan nan nan nan nan nan nan nan nan nan nan nan nan nan nan nan nan nan nan nan nan nan nan nan nan nan nan nan nan nan nan nan nan nan nan nan nan nan nan nan nan nan nan
62 64 63 63 65 66 67 nan nan nan 68 nan 70 nan 72 74 nan nan nan nan nan nan nan nan nan nan nan nan nan nan nan nan nan nan nan nan nan nan nan nan nan nan nan nan nan nan nan nan nan nan nan nan nan nan nan nan nan nan nan nan nan nan nan nan nan nan nan nan nan nan nan nan nan nan nan nan nan nan nan nan nan nan nan nan nan
64 65 65 65 66 nan nan nan nan nan nan nan nan nan nan nan nan nan nan nan nan nan nan nan nan nan nan nan nan nan nan nan nan nan nan nan nan nan nan nan nan nan nan nan nan nan nan nan nan nan nan nan nan nan nan nan nan nan nan nan nan nan nan nan nan nan nan nan nan nan nan nan nan nan nan nan nan nan nan nan nan nan nan nan nan
Wind_Direction
250 231 229 223 223 215 205 200 195 194 187 177 172 174 178 174 171 162 178 163 169 169 172 330 337 338 332 329 333 329 329 330 326 324 327 330 327 330 325 329 340 349 351 2 4 5 8 11 18 23 11 nan 29 33 34 34 27 28 23 21 29 23 17 nan nan nan nan nan nan nan nan nan nan nan nan nan nan nan 2 3 nan nan nan nan nan
270 248 232 225 228 218 213 208 206 202 187 177 174 177 179 178 173 179 167 171 197 199 232 259 283 309 315 323 325 326 324 325 323 319 326 330 331 322 324 329 337 344 343 357 1 5 6 11 19 21 10 20 24 nan 30 32 28 29 26 19 29 28 18 14 nan nan nan nan nan nan 9 349 2 347 357 359 nan nan nan 353 350 349 350 nan nan
259 237 221 215 215 212 214 211 210 203 186 179 173 175 178 181 185 175 173 191 206 219 238 257 275 290 300 309 315 317 320 321 318 319 326 335 339 334 331 331 337 342 346 356 357 355 2 9 18 11 360 15 26 31 25 29 23 23 27 14 22 24 14 12 10 25 31 nan nan nan nan nan 352 354 347 349 347 341 nan 346 347 344 343 nan nan
236 218 200 197 206 211 209 207 208 200 184 177 172 173 180 185 188 187 196 204 214 223 236 253 266 280 293 298 303 308 314 318 319 322 332 336 339 344 340 336 339 344 348 352 348 346 358 4 14 5 353 7 23 26 24 20 20 17 17 17 14 19 7 358 6 10 10 21 5 nan nan nan nan nan nan 337 342 340 340 339 335 342 342 340 nan
219 202 198 193 198 202 203 205 202 193 182 182 174 180 183 188 194 200 210 212 222 235 242 253 264 273 284 295 305 313 322 325 324 325 328 331 337 341 341 339 341 345 348 347 340 343 349 357 13 2 346 0 18 24 22 19 16 8 12 11 10 11 359 353 357 354 4 14 9 342 339 340 339 335 330 335 336 334 330 332 335 340 341 340 340
201 194 190 188 187 188 191 196 196 192 187 185 182 186 188 192 202 209 220 226 233 243 254 256 262 271 279 296 308 319 319 319 322 324 328 328 328 331 334 335 342 344 342 340 340 338 342 352 7 1 348 354 15 23 22 22 14 8 5 5 4 357 356 352 349 353 356 5 356 354 332 338 336 333 327 328 334 333 327 326 327 334 335 337 340
189 184 186 183 182 176 180 187 195 196 195 193 194 194 192 197 207 216 228 235 244 246 251 257 254 260 270 281 299 311 314 311 311 313 314 316 321 324 329 327 331 334 336 338 337 335 340 352 7 3 360 0 12 20 19 14 11 13 6 3 355 349 354 351 349 353 357 359 354 347 345 336 334 340 326 323 329 329 325 nan 331 334 nan 333 339
192 186 185 178 173 171 178 190 198 202 203 203 202 200 202 206 213 222 232 240 244 249 252 256 257 259 268 277 288 286 293 296 300 304 306 311 312 319 322 318 322 326 328 325 326 333 345 2 20 18 17 19 17 22 8 10 360 4 360 350 352 350 354 351 347 353 356 358 359 356 343 344 332 329 315 316 323 322 321 323 334 331 nan nan 334
200 195 186 172 166 175 186 194 201 206 208 210 209 209 214 217 223 231 234 234 236 245 251 257 262 266 268 277 284 286 293 301 298 307 311 314 312 320 320 310 309 311 316 323 320 333 347 9 26 31 29 36 34 29 18 6 358 5 3 346 352 352 353 349 349 348 350 352 357 343 342 344 338 328 328 328 331 336 nan nan nan 327 nan nan 327
209 201 186 175 183 190 195 199 203 206 208 210 211 214 218 222 226 231 231 232 235 243 251 259 263 272 276 283 287 293 303 298 329 352 338 318 312 306 286 274 280 294 309 317 325 343 17 23 32 36 35 35 33 31 30 24 19 13 7 343 348 347 349 349 346 344 342 344 346 342 340 345 338 329 331 331 324 nan nan nan nan nan nan nan nan
210 206 195 199 202 201 202 201 204 204 202 206 212 216 219 221 222 222 223 227 235 242 253 266 269 268 280 286 299 303 304 311 358 347 354 360 330 305 303 267 251 248 257 347 17 28 35 36 36 36 31 29 29 31 27 23 20 20 19 7 349 342 343 345 344 339 335 336 337 332 335 340 334 328 327 324 316 318 nan nan nan nan nan nan nan
211 207 206 211 211 210 206 208 206 203 208 208 213 216 217 217 216 217 220 225 229 237 250 267 267 265 263 278 297 304 306 343 357 353 355 1 355 345 299 254 235 195 124 88 82 59 51 41 32 24 22 22 16 13 16 17 14 12 10 3 358 354 351 345 341 332 328 330 331 332 331 331 329 324 321 315 315 312 314 314 316 nan nan nan nan
203 205 211 214 214 214 212 211 207 208 209 212 215 218 220 217 216 220 223 228 230 239 252 263 273 273 270 275 281 294 302 344 354 356 356 1 10 20 81 292 76 88 81 84 89 78 69 57 44 27 18 21 8 357 351 349 353 3 2 357 351 350 353 357 350 337 323 323 328 334 329 324 324 327 321 315 310 313 312 314 315 314 315 315 318
176 191 210 214 217 222 219 214 214 210 213 217 218 221 223 222 228 230 230 237 244 247 256 269 267 268 269 267 265 275 302 337 345 355 359 6 13 7 64 66 80 83 75 75 81 75 61 48 36 26 2 345 340 340 338 337 334 333 333 331 332 339 346 354 347 336 330 327 326 331 332 319 326 326 317 309 312 317 314 316 313 312 314 317 318
149 152 161 176 204 222 225 223 223 223 227 231 232 234 240 238 248 250 251 258 260 260 261 261 259 261 263 265 263 270 263 343 326 349 2 3 4 347 61 83 95 91 81 71 65 60 48 31 20 9 348 334 328 331 329 327 325 326 328 327 327 328 331 334 325 320 324 324 326 334 336 326 326 328 320 313 316 316 316 316 315 315 314 306 301
139 140 121 112 113 182 250 247 249 245 251 255 260 265 263 266 267 263 259 256 253 251 251 254 260 260 257 256 258 255 239 306 306 324 338 338 321 286 44 90 86 89 86 73 59 50 29 8 351 342 337 329 332 338 332 321 319 323 324 324 321 322 327 323 321 320 322 320 322 331 333 334 332 329 326 320 317 316 313 311 310 313 308 303 305
143 145 142 156 266 278 292 308 303 304 301 305 314 297 279 271 263 259 262 261 259 260 258 256 249 246 243 244 248 238 220 254 282 291 293 295 278 244 243 201 120 93 88 72 51 32 1 339 328 324 324 322 327 329 327 322 317 320 318 318 316 318 321 305 315 325 329 332 339 342 345 346 341 336 333 333 327 320 309 310 319 317 310 307 308
160 167 174 213 246 258 268 283 298 312 312 329 327 300 281 265 266 264 267 265 260 258 252 245 242 241 244 245 248 235 223 245 278 283 292 293 290 256 243 243 156 122 96 68 21 351 341 351 330 316 316 311 318 321 321 314 312 317 316 315 321 326 317 303 302 310 327 337 343 343 342 341 339 334 332 331 329 318 310 314 318 310 309 311 308
181 189 203 225 243 253 256 264 273 286 299 309 304 303 290 279 269 263 263 261 256 249 247 243 239 237 239 241 247 245 226 239 278 286 288 289 280 240 243 234 216 214 259 296 295 295 295 300 319 316 312 311 316 317 319 311 310 315 315 314 320 326 316 305 308 307 307 308 314 318 320 325 322 318 319 326 326 320 311 311 308 305 305 305 302
197 204 212 226 239 247 246 256 262 264 273 280 281 288 280 272 269 266 259 256 251 248 246 242 239 234 234 238 241 242 235 231 248 279 280 285 304 265 246 244 241 256 268 279 282 287 290 289 295 310 321 321 308 299 294 304 311 314 311 312 314 321 308 301 303 302 294 297 309 313 316 314 312 313 314 314 314 314 312 310 309 308 308 306 304
208 209 213 220 230 240 242 250 261 259 260 268 274 275 273 276 276 272 264 255 251 248 249 243 236 230 231 235 238 241 240 237 243 276 279 291 307 303 257 278 280 279 284 294 294 292 288 289 289 290 291 292 300 306 310 311 310 305 304 307 311 302 286 297 301 296 303 311 321 322 318 317 317 316 316 314 313 311 310 311 312 312 311 310 309
210 213 217 219 224 231 239 243 250 251 253 256 258 261 264 271 274 276 267 259 255 249 246 242 237 231 230 232 236 241 246 259 244 265 286 298 304 323 295 301 310 301 302 296 291 287 287 284 279 273 273 274 277 279 283 287 293 296 301 306 303 300 302 302 306 308 312 319 325 324 322 321 320 319 320 319 317 315 313 313 314 315 314 313 313
209 214 216 219 222 227 232 245 249 245 247 255 262 266 264 267 271 274 276 269 258 248 244 242 238 233 232 234 237 241 244 246 264 257 281 301 314 323 341 324 320 306 296 289 283 276 269 270 272 271 269 272 275 279 284 288 292 297 303 302 302 304 305 309 312 314 316 320 323 325 325 324 322 320 318 317 315 312 311 312 314 315 315 316 318
213 213 213 215 221 223 227 237 248 250 252 253 258 264 265 266 267 270 276 276 265 250 239 239 238 235 235 237 239 239 240 241 250 272 273 305 314 324 330 337 300 267 269 268 265 267 268 269 270 271 274 273 276 277 281 288 292 292 293 297 299 304 308 311 313 314 316 319 nan nan nan nan 322 320 318 316 314 312 313 313 314 316 317 318 322
216 216 214 215 218 219 221 229 242 247 248 251 254 256 258 261 264 263 269 276 275 259 240 237 237 236 237 240 240 239 237 237 238 239 252 279 297 296 293 282 270 262 262 264 265 266 269 275 274 273 275 277 280 281 283 285 285 286 290 294 300 304 307 310 nan nan nan nan nan nan nan nan nan 319 317 317 316 315 316 316 317 319 319 320 323
214 213 214 216 218 219 220 223 233 241 247 249 254 256 260 262 264 265 271 279 285 274 250 240 238 237 239 239 240 243 239 239 240 242 244 254 261 273 278 275 278 274 267 264 270 272 273 272 276 278 281 281 283 285 285 287 289 292 297 301 304 nan nan nan nan nan nan nan nan nan nan nan nan nan nan nan nan 318 317 318 317 319 318 317 318
212 213 214 215 217 219 220 221 226 232 237 243 248 254 258 260 260 262 269 275 279 274 256 245 242 241 241 241 242 243 242 243 246 247 251 256 257 260 265 265 267 271 270 269 271 270 274 277 280 283 285 286 287 290 292 293 296 299 301 304 nan nan nan nan nan nan nan nan nan nan nan nan nan nan nan nan nan nan nan nan 321 323 320 318 320
212 213 215 218 219 220 220 224 229 229 233 237 243 249 254 257 261 264 267 269 272 273 264 252 249 249 247 247 247 246 246 248 251 256 257 259 261 262 265 266 269 271 271 270 273 276 279 281 282 283 286 287 288 289 292 295 298 299 nan nan nan nan nan nan nan nan nan nan nan nan nan nan nan nan nan nan nan nan nan nan nan nan nan 324 327
219 219 220 221 223 224 226 227 228 230 229 228 229 231 236 243 249 254 250 247 253 262 264 258 254 251 252 254 256 253 252 254 254 253 259 265 270 270 269 270 270 270 273 278 276 277 280 280 280 281 282 284 285 286 289 nan nan nan nan nan nan nan nan nan nan nan nan nan nan nan nan nan nan nan nan nan nan nan nan nan nan nan nan nan nan
223 226 229 231 231 233 235 235 236 237 238 237 238 234 235 239 240 245 250 241 239 236 251 261 260 256 253 250 252 263 266 260 258 260 261 262 264 268 270 272 273 274 277 281 280 280 279 281 281 283 284 284 285 287 nan nan nan nan nan nan nan nan nan nan nan nan nan nan nan nan nan nan nan nan nan nan nan nan nan nan nan nan nan nan nan
224 227 231 234 238 241 242 242 242 243 244 245 244 244 240 235 235 237 242 245 246 245 251 254 263 265 264 253 242 250 256 260 263 263 264 266 271 273 273 274 275 278 281 280 275 279 282 283 284 285 286 288 nan nan nan nan nan nan nan nan nan nan nan nan nan nan nan nan nan nan nan nan nan nan nan nan nan nan nan nan nan nan nan nan nan
230 232 234 237 241 242 243 246 248 249 248 248 250 250 247 244 238 234 237 241 243 245 247 253 257 258 260 262 257 247 255 263 267 267 267 269 270 272 272 273 274 273 273 276 279 280 283 286 287 286 nan nan nan nan nan nan nan nan nan nan nan nan nan nan nan nan nan nan nan nan nan nan nan nan nan nan nan nan nan nan nan nan nan nan nan
233 235 238 241 244 247 249 251 251 253 255 255 254 253 253 251 250 246 238 241 244 244 243 247 254 257 257 256 258 262 263 263 265 266 269 270 270 270 270 269 269 270 275 275 281 283 285 285 nan nan nan nan nan nan nan nan nan nan nan nan nan nan nan nan nan nan nan nan nan nan nan nan nan nan nan nan nan nan nan nan nan nan nan nan nan
235 241 244 248 250 250 252 254 254 253 253 255 256 256 255 256 257 255 253 250 246 244 244 242 246 254 255 260 264 264 264 264 265 267 268 268 270 271 270 268 268 266 272 279 281 284 nan nan nan nan nan nan nan nan nan nan nan nan nan nan nan nan nan nan nan nan nan nan nan nan nan nan nan nan nan nan nan nan nan nan nan nan nan nan nan
237 242 249 246 249 252 253 254 255 255 255 255 256 257 258 258 260 260 261 259 255 253 251 246 243 245 253 255 257 259 262 264 266 268 269 270 270 273 273 271 271 271 273 276 nan nan nan nan nan nan nan nan nan nan nan nan nan nan nan nan nan nan nan nan nan nan nan nan nan nan nan nan nan nan nan nan nan nan nan nan nan nan nan nan nan
233 243 244 248 249 250 252 253 254 257 258 256 255 256 259 261 261 260 258 259 261 260 254 250 250 247 249 249 254 260 262 264 268 270 272 273 274 270 269 271 273 275 nan nan nan nan nan nan nan nan nan nan nan nan nan nan nan nan nan nan nan nan nan nan nan nan nan nan nan nan nan nan nan nan nan nan nan nan nan nan nan nan nan nan nan
232 236 244 246 247 249 249 249 249 252 253 255 257 258 258 258 259 260 261 264 262 260 260 259 257 253 250 250 253 257 262 266 268 269 269 270 269 267 270 273 nan nan nan nan nan nan nan nan nan nan nan nan nan nan nan nan nan nan nan nan nan nan nan nan nan nan nan nan nan nan nan nan nan nan nan nan nan nan nan nan nan nan nan nan nan
238 238 239 243 248 249 250 251 253 255 256 257 258 260 261 262 263 264 266 265 264 264 263 262 261 261 260 256 256 257 259 260 261 260 261 262 265 268 271 nan nan nan nan nan nan nan nan nan nan nan nan nan nan nan nan nan nan nan nan nan nan nan nan nan nan nan nan nan nan nan nan nan nan nan nan nan nan nan nan nan nan nan nan nan nan
242 243 245 244 243 248 252 255 257 258 258 259 260 263 264 266 265 264 264 265 264 263 263 264 265 265 263 262 262 262 262 259 260 262 264 266 267 nan nan nan nan nan nan nan nan nan nan nan nan nan nan nan nan nan nan nan nan nan nan nan nan nan nan nan nan nan nan nan nan nan nan nan nan nan nan nan nan nan nan nan nan nan nan nan nan
242 241 244 249 249 248 250 251 253 254 259 261 260 260 263 264 266 267 267 265 265 265 265 265 265 263 260 258 259 260 260 261 262 263 265 265 nan nan nan nan nan nan nan nan nan nan nan nan nan nan nan nan nan nan nan nan nan nan nan nan nan nan nan nan nan nan nan nan nan nan nan nan nan nan nan nan nan nan nan nan nan nan nan nan nan
242 242 241 243 250 252 252 253 254 256 256 257 260 261 261 262 263 264 264 265 266 264 263 262 259 254 250 251 254 257 260 262 262 262 nan nan nan nan nan nan nan nan nan nan nan nan nan nan nan nan nan nan nan nan nan nan nan nan nan nan nan nan nan nan nan nan nan nan nan nan nan nan nan nan nan nan nan nan nan nan nan nan nan nan nan
242 242 242 241 244 250 253 254 255 254 254 257 256 257 258 259 261 263 263 262 262 261 260 259 258 257 255 255 255 257 258 258 nan nan nan nan nan nan nan nan nan nan nan nan nan nan nan nan nan nan nan nan nan nan nan nan nan nan nan nan nan nan nan nan nan nan nan nan nan nan nan nan nan nan nan nan nan nan nan nan nan nan nan nan nan
243 243 243 243 243 244 250 254 255 256 254 253 255 255 255 256 258 260 261 261 260 260 260 261 260 258 257 257 nan nan nan nan nan nan nan nan nan nan nan nan nan nan nan nan nan nan nan nan nan nan nan nan nan nan nan nan nan nan nan nan nan nan nan nan nan nan nan nan nan nan nan nan nan nan nan nan nan nan nan nan nan nan nan nan nan
245 245 245 245 245 244 244 248 253 256 257 256 253 253 255 255 254 255 257 258 258 258 258 259 259 259 nan nan nan nan nan nan nan nan nan nan nan nan nan nan nan nan nan nan nan nan nan nan nan nan nan nan nan nan nan nan nan nan nan nan nan nan nan nan nan nan nan nan nan nan nan nan nan nan nan nan nan nan nan nan nan nan nan nan nan
249 250 249 247 246 247 246 244 246 251 255 256 254 252 253 254 255 254 255 256 257 257 257 258 258 nan nan nan nan nan nan nan nan nan nan nan nan nan nan nan nan nan nan nan nan nan nan nan nan nan nan nan nan nan nan nan nan nan nan nan nan nan nan nan nan nan nan nan nan nan nan nan nan nan nan nan nan nan nan nan nan nan nan nan nan
254 254 254 254 252 251 250 249 248 248 250 253 255 254 252 251 252 253 254 254 255 256 257 257 nan nan nan nan nan nan nan nan nan nan nan nan nan nan nan nan nan nan nan nan nan nan nan nan nan nan nan nan nan nan nan nan nan nan nan nan nan nan nan nan nan nan nan nan nan nan nan nan nan nan nan nan nan nan nan nan nan nan nan nan nan
255 257 257 257 257 256 255 254 253 252 251 252 252 253 253 253 252 252 253 254 255 255 256 nan nan nan nan nan nan nan nan nan nan nan nan nan nan nan nan nan nan nan nan nan nan nan nan nan nan nan nan nan nan nan nan nan nan nan nan nan nan nan nan nan nan nan nan nan nan nan nan nan nan nan nan nan nan nan nan nan nan nan nan nan nan
251 254 255 255 256 256 256 256 256 255 254 254 253 253 253 253 253 253 253 253 254 nan nan nan nan nan nan nan nan nan nan nan nan nan nan nan nan nan nan nan nan nan nan nan nan nan nan nan nan nan nan nan nan nan nan nan nan nan nan nan nan nan nan nan nan nan nan nan nan nan nan nan nan nan nan nan nan nan nan nan nan nan nan nan nan
253 252 254 253 253 253 254 255 254 254 255 255 255 255 255 255 254 254 254 nan nan nan nan nan nan nan nan nan nan nan nan nan nan nan nan nan nan nan nan nan nan nan nan nan nan nan nan nan nan nan nan nan nan nan nan nan nan nan nan nan nan nan nan nan nan nan nan nan nan nan nan nan nan nan nan nan nan nan nan nan nan nan nan nan nan
255 254 253 253 253 254 253 nan nan nan 254 nan 255 nan 255 255 nan nan nan nan nan nan nan nan nan nan nan nan nan nan nan nan nan nan nan nan nan nan nan nan nan nan nan nan nan nan nan nan nan nan nan nan nan nan nan nan nan nan nan nan nan nan nan nan nan nan nan nan nan nan nan nan nan nan nan nan nan nan nan nan nan nan nan nan nan
254 254 254 253 254 nan nan nan nan nan nan nan nan nan nan nan nan nan nan nan nan nan nan nan nan nan nan nan nan nan nan nan nan nan nan nan nan nan nan nan nan nan nan nan nan nan nan nan nan nan nan nan nan nan nan nan nan nan nan nan nan nan nan nan nan nan nan nan nan nan nan nan nan nan nan nan nan nan nan nan nan nan nan nan nan